[[{"header":{"parameterUnit":"m.s-1","parameterCategory":1,"la1":30.2991,"la2":30.254,"lo1":-89.0895,"lo2":-89.0444,"dy":0.0017,"dx":0.0017,"nx":28,"ny":28,"refTime":"2024-08-17T09:00:00:Z","depth":0,"parameterNumber":2,"parameterNumberName":"U-component_of_WINDS"},"data":[0,0,0,0,0,0,0,0,0,0,0,0,0,0,0,0,0,0,0,0,0,0,0,0,0,0,0,0,0,0,0,0,0,0,0,0,0,0,0,0,0,0,0,0,0,0,0,0,0,0,0,0,0,0,0,0,0,0,0.379,0.3791,0,0.3853,0.3853,0.3854,0.3882,0.3882,0.3882,0.3882,0.3948,0.395,0.3952,0,0,0,0,0,0,0,0,0,0,0,0,0,0.3697,0.3698,0.379,0.3791,0.3792,0.3853,0.3853,0.3854,0.3882,0.3882,0.3882,0.3881,0.3948,0.395,0.3952,0,0,0,0,0,0,0,0,0,0,0,0,0,0.3746,0.3699,0.379,0.3813,0.3815,0.3852,0.3854,0.3855,0.3882,0.3882,0.3882,0.3881,0.3947,0.395,0.3953,0.3973,0,0,0.3961,0.3962,0,0,0,0,0,0,0,0,0.3743,0.375,0.3809,0.3811,0.3814,0.3859,0.3845,0.3894,0.3882,0.3857,0.3882,0.3881,0.3919,0.3924,0.3936,0.3976,0.3979,0.3961,0.3963,0.3964,0.3965,0,0,0,0,0,0,0,0.374,0.3747,0.3815,0.381,0.3813,0.382,0.3827,0.3854,0.3888,0.3859,0.3861,0.3868,0.3921,0.3933,0.3938,0.398,0.3961,0.3964,0.3965,0.3967,0.4038,0.4038,0,0,0,0,0,0,0.3732,0.3744,0.3813,0.3817,0.3778,0.3822,0.383,0.3845,0.3888,0.3894,0.3868,0.3869,0.3929,0.3935,0.394,0.3966,0.3964,0.3967,0.3968,0.4038,0.4038,0.4038,0,0,0,0,0,0,0.373,0.3738,0.3811,0.3781,0.3791,0.3824,0.3841,0.3846,0.3859,0.3895,0.3901,0.3875,0.3929,0.3937,0.3964,0.3969,0.3968,0.3971,0.4037,0.4038,0.4038,0.4018,0,0,0,0,0,0,0.3727,0.3737,0.3745,0.3781,0.3792,0.3832,0.3841,0.3848,0.3864,0.3866,0.3903,0.3909,0.3929,0.396,0.3967,0.3973,0.3973,0.4037,0.4037,0.4038,0.4018,0.4018,0.4017,0,0,0,0,0,0.3724,0.3738,0.3745,0.3753,0.3802,0.3833,0.3839,0.3862,0.3864,0.3872,0.3895,0.3908,0.3967,0.3962,0.397,0.3977,0.4037,0.4037,0.4038,0.4019,0.4018,0.4017,0,0,0,0,0,0,0.3703,0.3743,0.3752,0.3777,0.3801,0.3837,0.3848,0.386,0.3885,0.3886,0.3914,0.3922,0.3947,0.3965,0.3959,0.3999,0.4003,0.4005,0.3986,0.3985,0.3985,0.398,0.3975,0,0,0,0,0,0.3701,0.3721,0.3756,0.3775,0.3786,0.3815,0.3829,0.3844,0.3871,0.3881,0.3906,0.3931,0.3956,0.3972,0.3996,0.4021,0.4029,0.403,0.4029,0.4028,0.403,0.4044,0.4044,0.404,0.404,0.404,0,0,0.3697,0.3722,0.3734,0.3771,0.3792,0.3813,0.3824,0.3846,0.3862,0.3885,0.3912,0.3931,0.3961,0.3987,0.4,0.4003,0.4033,0.4029,0.4028,0.403,0.4044,0.4045,0.4045,0.404,0.404,0.404,0,0,0.3702,0.3723,0.3741,0.376,0.379,0.3809,0.3813,0.3847,0.386,0.3888,0.3905,0.3925,0.3967,0.3987,0.4003,0.4014,0.4027,0.4021,0.4018,0.4031,0.4031,0.4032,0.4036,0.4037,0.4023,0.4023,0.4023,0,0.3695,0.3726,0.3749,0.3769,0.3785,0.3806,0.3824,0.3843,0.388,0.389,0.3893,0.3945,0.3967,0.3998,0.4,0.4013,0.4018,0.4018,0.4029,0.403,0.4031,0.4035,0.4036,0.4022,0.4022,0.4022,0.4022,0,0.3715,0.3737,0.3748,0.3782,0.3799,0.3819,0.3844,0.3859,0.3872,0.3891,0.3918,0.3945,0.3975,0.3983,0.3997,0.4016,0.4016,0.4024,0.4029,0.403,0.4034,0.4036,0.4021,0.4021,0.4021,0.4021,0,0,0.371,0.3754,0.3758,0.3773,0.3807,0.3824,0.3845,0.3873,0.3885,0.3909,0.3927,0.3961,0.3968,0.3986,0.4002,0.4013,0.402,0.402,0.4021,0.4018,0.4041,0.4036,0.4037,0.4028,0.4028,0.4029,0.4039,0,0.3719,0.3755,0.3775,0.3804,0.3824,0.3843,0.3861,0.3884,0.3901,0.3921,0.3941,0.3964,0.3971,0.3982,0.3994,0.4016,0.4025,0.4016,0.4045,0.4046,0.4037,0.4039,0.4034,0.4042,0.4041,0.4041,0.4041,0,0.3735,0.3758,0.3788,0.3818,0.3827,0.3843,0.387,0.3888,0.3915,0.3927,0.3946,0.3961,0.3984,0.3986,0.4018,0.4011,0.4024,0.4037,0.4037,0.4041,0.4044,0.4043,0.4045,0.4046,0.4044,0.4044,0.4043,0,0.3727,0.3766,0.3788,0.3801,0.3837,0.3847,0.3863,0.3889,0.3904,0.3928,0.3938,0.3964,0.3979,0.3999,0.4021,0.4021,0.405,0.4054,0.406,0.406,0.4066,0.4066,0.407,0.4074,0.4074,0.4074,0.4074,0,0.3736,0.3754,0.3785,0.3799,0.3819,0.3842,0.3861,0.3879,0.3901,0.3919,0.3938,0.3954,0.3982,0.4002,0.402,0.4043,0.4049,0.406,0.4064,0.4058,0.4057,0.4068,0.4068,0.4075,0.4075,0.4074,0.4074,0,0.3731,0.3753,0.3779,0.3811,0.3819,0.3833,0.386,0.3874,0.3892,0.3914,0.3921,0.3949,0.3974,0.3997,0.4031,0.4042,0.4065,0.4071,0.4056,0.4058,0.4063,0.4062,0.4075,0.4078,0.408,0.408,0.4079,0,0.3736,0.3749,0.3782,0.3795,0.381,0.383,0.3845,0.3868,0.3883,0.3913,0.3924,0.3949,0.3971,0.4009,0.4033,0.4058,0.4065,0.4068,0.4069,0.4062,0.4065,0.4064,0.4065,0.4067,0.4067,0.4067,0.4067,0,0.3741,0.375,0.3771,0.3795,0.3812,0.3833,0.3854,0.3863,0.389,0.3906,0.3931,0.3947,0.398,0.4005,0.4033,0.405,0.4063,0.4066,0.4069,0.4063,0.4053,0.4058,0.4054,0.4066,0.4066,0.4066,0.4066,0.4066,0.3741,0.3753,0.3778,0.38,0.3818,0.3837,0.3852,0.3871,0.3891,0.3919,0.3931,0.3956,0.3981,0.4019,0.4035,0.4055,0.4059,0.4063,0.4064,0.4064,0.4063,0.4049,0.406,0.406,0.4061,0.4061,0.4061,0,0.3746,0.3763,0.3783,0.3811,0.3828,0.3838,0.3861,0.3875,0.3896,0.3918,0.3938,0.3966,0.399,0.4015,0.404,0.4051,0.4058,0.4057,0.4057,0.406,0.4059,0.4054,0.4051,0.4051,0.4051,0.4051,0.4051,0.4051,0.3752,0.3773,0.3786,0.3816,0.3833,0.3856,0.3869,0.3886,0.3904,0.3933,0.3953,0.3969,0.3992,0.4019,0.4041,0.4048,0.4056,0.4054,0.4062,0.406,0.4061,0.4061,0.4057,0.4055,0.4055,0.4063,0.4063,0.4063]},{"header":{"parameterUnit":"m.s-1","parameterCategory":1,"la1":30.2991,"la2":30.254,"lo1":-89.0895,"lo2":-89.0444,"dy":0.0017,"dx":0.0017,"nx":28,"ny":28,"refTime":"2024-08-17T09:00:00:Z","depth":0,"parameterNumber":3,"parameterNumberName":"V-component_of_WINDS"},"data":[0,0,0,0,0,0,0,0,0,0,0,0,0,0,0,0,0,0,0,0,0,0,0,0,0,0,0,0,0,0,0,0,0,0,0,0,0,0,0,0,0,0,0,0,0,0,0,0,0,0,0,0,0,0,0,0,0,0,2.7002,2.7003,0,2.7033,2.7033,2.7034,2.7055,2.7055,2.7055,2.7055,2.7083,2.7084,2.7084,0,0,0,0,0,0,0,0,0,0,0,0,0,2.6957,2.6958,2.7002,2.7003,2.7003,2.7033,2.7033,2.7034,2.7055,2.7055,2.7055,2.7055,2.7083,2.7084,2.7084,0,0,0,0,0,0,0,0,0,0,0,0,0,2.6981,2.6958,2.7002,2.7017,2.7019,2.7033,2.7033,2.7034,2.7055,2.7055,2.7055,2.7055,2.7083,2.7084,2.7085,2.7085,0,0,2.7087,2.7088,0,0,0,0,0,0,0,0,2.698,2.6983,2.7015,2.7016,2.7018,2.704,2.7028,2.7051,2.7055,2.7041,2.7055,2.7055,2.7069,2.7071,2.7076,2.7086,2.7088,2.7087,2.7088,2.7088,2.7089,0,0,0,0,0,0,0,2.6978,2.6981,2.7014,2.7015,2.7017,2.7021,2.7024,2.7032,2.7053,2.7042,2.7044,2.7047,2.707,2.7075,2.7077,2.7088,2.7087,2.7088,2.7089,2.7089,2.7098,2.7097,0,0,0,0,0,0,2.6975,2.698,2.7014,2.7015,2.6999,2.7021,2.7026,2.7033,2.7053,2.7056,2.7047,2.7048,2.7073,2.7076,2.7078,2.7078,2.7088,2.7089,2.709,2.7098,2.7098,2.7097,0,0,0,0,0,0,2.6974,2.6977,2.7012,2.6998,2.7003,2.7022,2.703,2.7033,2.7039,2.7057,2.706,2.7049,2.7073,2.7076,2.7083,2.7079,2.709,2.709,2.7098,2.7098,2.7097,2.708,0,0,0,0,0,0,2.6972,2.6977,2.6979,2.6998,2.7004,2.7018,2.703,2.7034,2.7041,2.7042,2.7059,2.7062,2.7074,2.7081,2.7084,2.7081,2.7091,2.7099,2.7098,2.7098,2.7081,2.7079,2.7077,0,0,0,0,0,2.697,2.6973,2.6979,2.6983,2.7007,2.7018,2.7021,2.7035,2.704,2.7041,2.7052,2.7062,2.7079,2.7082,2.7085,2.7082,2.7099,2.7098,2.7098,2.7081,2.7079,2.7077,0,0,0,0,0,0,2.6952,2.6975,2.6983,2.6991,2.7003,2.7022,2.7024,2.7033,2.7042,2.7043,2.7059,2.7063,2.7067,2.7075,2.7077,2.7082,2.709,2.709,2.7077,2.7075,2.7073,2.7071,2.7092,0,0,0,0,0,2.6949,2.6958,2.6977,2.6983,2.6988,2.7005,2.7011,2.702,2.7032,2.7037,2.7049,2.7059,2.7066,2.7071,2.7079,2.7082,2.7084,2.7081,2.7079,2.7077,2.7077,2.7077,2.7075,2.7095,2.7095,2.7095,0,0,2.6943,2.6957,2.6961,2.6979,2.699,2.6996,2.7009,2.7017,2.7021,2.7038,2.7045,2.7053,2.7065,2.7069,2.7071,2.7076,2.7072,2.7077,2.7075,2.7076,2.7076,2.7074,2.7072,2.7095,2.7095,2.7095,0,0,2.6935,2.6947,2.6952,2.6962,2.6976,2.6987,2.6988,2.7005,2.7012,2.7019,2.703,2.7035,2.7049,2.7056,2.7062,2.7053,2.7062,2.7055,2.7046,2.7045,2.7043,2.7042,2.7037,2.7036,2.7055,2.7055,2.7055,0,2.6926,2.6938,2.6954,2.696,2.6966,2.6982,2.6985,2.6993,2.701,2.7013,2.7018,2.7033,2.7043,2.7047,2.7045,2.7049,2.7049,2.7054,2.7043,2.7041,2.704,2.7036,2.7034,2.7054,2.7054,2.7054,2.7054,0,2.6924,2.6933,2.6935,2.695,2.6957,2.6962,2.6976,2.698,2.6988,2.6998,2.7003,2.7014,2.7024,2.7026,2.7034,2.7031,2.7033,2.704,2.7048,2.7037,2.7033,2.7032,2.7053,2.7053,2.7053,2.7053,0,0,2.6908,2.693,2.6931,2.6937,2.6953,2.6958,2.6962,2.6972,2.6975,2.6985,2.6988,2.6997,2.7003,2.7009,2.7018,2.7017,2.7008,2.7024,2.7025,2.702,2.7002,2.6996,2.6994,2.7013,2.7013,2.7013,2.7001,0,2.6902,2.6912,2.6925,2.693,2.6936,2.6949,2.6952,2.6961,2.6969,2.6974,2.6983,2.6989,2.6997,2.7,2.7,2.7009,2.7004,2.701,2.7014,2.7014,2.701,2.6993,2.6987,2.6975,2.6999,2.6999,2.6999,0,2.6898,2.6906,2.6912,2.6925,2.6928,2.6931,2.6939,2.6945,2.6954,2.696,2.6965,2.6974,2.6977,2.6984,2.6987,2.6991,2.6993,2.6997,2.6997,2.6997,2.7006,2.6992,2.6972,2.697,2.6997,2.6997,2.6998,0,2.6883,2.6897,2.6901,2.6906,2.6922,2.6923,2.6929,2.6939,2.6943,2.695,2.6952,2.6959,2.6962,2.6966,2.6976,2.6981,2.6977,2.6986,2.698,2.698,2.6979,2.6979,2.6958,2.6981,2.6981,2.6981,2.6981,0,2.6875,2.6878,2.6895,2.6897,2.69,2.6912,2.6914,2.6921,2.6929,2.6931,2.6943,2.6945,2.6958,2.6961,2.6968,2.6968,2.697,2.6973,2.6975,2.6972,2.6971,2.6973,2.6974,2.6981,2.6981,2.6981,2.6981,0,2.6861,2.6872,2.6877,2.6891,2.6894,2.6895,2.6906,2.6908,2.6915,2.6918,2.692,2.6931,2.6935,2.6945,2.6951,2.6956,2.6953,2.6958,2.6951,2.6952,2.6945,2.6945,2.6925,2.6922,2.6947,2.6947,2.6947,0,2.6855,2.6857,2.687,2.6873,2.6879,2.6883,2.6887,2.6899,2.6902,2.6911,2.6911,2.6915,2.692,2.6925,2.6933,2.6937,2.694,2.6933,2.6941,2.6937,2.6938,2.6938,2.6937,2.6931,2.6931,2.693,2.693,0,2.6843,2.6847,2.6853,2.686,2.6864,2.687,2.6876,2.6877,2.689,2.6892,2.6896,2.69,2.6905,2.6909,2.6913,2.6918,2.6925,2.6927,2.6926,2.6923,2.6918,2.6919,2.6945,2.6928,2.6928,2.6928,2.6928,2.6928,2.6832,2.6833,2.6842,2.6847,2.6852,2.6857,2.6859,2.6866,2.687,2.6876,2.6882,2.6884,2.689,2.6897,2.6901,2.6902,2.6906,2.6905,2.6904,2.6903,2.6901,2.6918,2.6903,2.6903,2.6903,2.6903,2.6903,0,2.6819,2.6825,2.6829,2.6837,2.684,2.6847,2.6853,2.6855,2.6857,2.6862,2.6866,2.6869,2.6871,2.6879,2.6882,2.6881,2.6884,2.6881,2.6881,2.6881,2.6898,2.6898,2.6878,2.6878,2.6878,2.6878,2.6878,2.6878,2.6813,2.6815,2.682,2.6824,2.6829,2.6832,2.6835,2.6838,2.6842,2.6845,2.6847,2.6852,2.6857,2.686,2.6862,2.6864,2.6864,2.6859,2.6862,2.6878,2.688,2.6883,2.6883,2.686,2.686,2.6845,2.6845,2.6845]}]]